ARIANE 5 R/B, 42742

Orbit data source: Space-Track

ARIANE 5 R/B, 42742 is space debris in HEO originally from a launch on Thu, 01 Jun 2017 UTC launched from the French Guiana (FRGUI). Debris objects in space refer to the collection of defunct objects orbiting the Earth. Examples of debris include non-operational satellites, rocket bodies, and fragments generated from explosions, collisions, or faulty payload assembly.

Loading next visibility...
Identifier
42742, 2017-029C
Orbit
HEO
Country
Flag of FRFR
Related business
Manufacturer
Airbus Safran
Mission
Spacecraft
Bus & Motor
ESC-A, Unknown motor
Mass
~5,000 kg wet, ~5,000 kg dry
Launch date (UTC)
2017-06-01 (9 years ago)
Launch vehicle
Unknown
Launch site
French Guiana (FRGUI)
Object type
Payload
Rocket body
Debris
Shape & HBR
Cyl + 1 Nozzle, 3.5 m
Radar Cross Section
41.627 m², Large (>1 m²)

Expand to show TLE details & history
Last TLE update: 20 hours ago

TLE from 20 hours ago
0 ARIANE 5 R/B
1 42742U 17029C   25341.01415298  .00005939  00000-0  18816-2 0  9995
2 42742   5.6182 218.5830 7216131 220.3807  54.0634  2.35900145 71787
Epoch: 2025-12-07T00:20Z
TLE epoch observation values (Epoch: 2025-12-07T00:20:22.817Z)
Latitude
0.00001°
Longitude
137.63576°
Altitude
19,044.718 km
Speed
3.825 km/s
True Right ascension
14h 35m 03s
True Declination
0° 00' 00"
Sunlit
Object was in daylight at epoch
Visualization orbit readout
Latitude
Unknown
Longitude
Unknown
Altitude
Unknown
Speed
Unknown
Apparent Right ascension
Unknown
Apparent Declination
Unknown
Sunlit
N/A
Visualization observer readout
Local Sidereal Time
18:32:43
Azimuth
Unknown
Elevation
Unknown
Doppler factor
Unknown
Orbital elements
Apogee altitude
34,669.251 km
Perigee altitude
259.275 km
Semi-major axis
23,842.4 km
Eccentricity
0.72161
Inclination
5.6182°
RAAN
218.583°
Arg. of periapsis
220.3807°
True anomaly
139.69841°
Mean anomaly
54.0634°
Eccentric anomaly
95.23625°
Mean motion
0.58955 °/min
Orbital period
610.64 mins
BSTAR
0.0018816
Loading maneuver chart data...
Computing Atmospheric mass density...
Loading historical data...
Loading historical data...
Loading historical data...
Loading historical data...
Loading historical data...
Loading historical data...
Loading historical data...
Other satellites on launch #29 in the year 2017 (2017-06-01 UTC)

Documentation

Showing up to 5 results
|